Dewpoint
66 67 67 67 66 66 66 67 67 67 68 68 67 67 66 66 66 67 66 66 65 65 64 63 62 61 58 58 60 61 55 51
64 65 65 65 65 66 66 66 67 67 66 66 65 65 65 65 65 65 65 65 65 64 63 62 60 58 57 55 57 58 48 51
64 64 63 65 65 66 66 67 66 65 64 64 61 58 57 60 64 65 65 64 64 63 62 60 58 57 56 57 57 47 44 53
61 63 63 63 63 64 65 64 62 61 60 59 58 60 60 61 63 63 63 63 63 62 61 60 58 49 49 55 46 45 47 54
59 60 60 60 60 62 62 61 59 60 60 61 60 60 60 60 60 59 58 58 52 54 55 53 53 50 50 48 46 43 42 49
57 58 58 59 60 60 61 61 61 59 60 61 60 60 59 58 58 58 57 55 52 53 55 53 50 48 48 46 43 40 39 47
55 55 55 56 57 57 58 60 59 60 59 60 60 60 61 59 58 57 55 57 56 55 53 51 48 48 45 41 38 39 39 42
55 55 55 55 54 54 56 58 57 59 59 59 60 60 60 59 59 58 57 56 55 54 52 49 48 47 43 38 37 38 39 40
54 55 55 54 54 56 57 55 54 51 54 59 60 58 61 60 57 57 57 56 55 53 50 48 46 41 39 38 39 37 39 38
54 56 55 55 55 54 55 55 51 49 53 60 59 58 61 60 59 57 57 55 54 53 50 48 45 42 40 39 38 37 36 36
53 53 53 52 53 53 52 53 57 54 56 58 61 60 60 60 58 58 57 55 55 52 49 47 44 41 40 40 40 39 37 33
51 51 51 52 52 54 53 55 55 55 55 61 60 59 60 60 60 58 56 55 53 51 47 44 44 43 36 37 42 41 38 38
49 50 52 54 55 55 55 54 55 57 60 60 62 60 59 59 59 58 56 54 52 51 48 43 41 44 43 44 44 42 40 39
53 51 54 56 57 54 55 54 54 56 60 62 61 61 58 58 59 58 56 53 53 50 48 46 45 46 44 43 42 40 40 40
52 54 55 57 57 55 53 54 53 54 57 61 60 61 59 58 58 56 56 55 52 51 49 46 44 46 44 42 39 36 37 40
52 53 53 55 57 57 53 50 51 56 58 58 59 60 59 57 56 56 55 54 51 51 49 47 47 45 46 44 44 39 35 32
54 54 54 56 58 59 58 53 57 60 59 59 58 59 58 58 55 54 55 54 53 50 47 48 48 44 45 44 42 41 40 36
56 56 55 56 59 59 59 57 57 59 59 58 58 57 56 55 54 55 55 54 51 49 48 49 46 45 42 41 40 37 36 37
55 55 55 56 59 60 60 59 59 58 58 59 58 56 56 56 56 55 54 51 50 47 49 49 47 43 42 42 39 39 38 36
54 54 54 55 58 59 60 60 59 60 59 59 57 56 57 57 55 51 49 48 48 48 49 48 46 44 44 41 39 40 39 35
Lifted_Index
-1 -1 -2 -2 -2 -3 -2 -2 -2 -2 -2 -2 -1 -1 -0 -0 -0 -1 -1 -0 0 0 1 2 3 5 5 5 5 4 4 4
-0 -0 -0 -1 -2 -2 -2 -2 -2 -1 -1 -0 0 1 1 1 0 -0 -0 -0 -0 0 1 3 4 5 6 6 5 5 4 4
-1 -0 0 -0 -1 -2 -2 -1 -1 -1 0 1 2 2 2 2 1 1 0 -0 0 1 2 4 5 6 6 6 6 6 5 4
-1 -0 0 0 -0 -1 -1 -1 0 1 2 2 3 3 3 2 2 2 1 0 1 2 3 4 4 5 6 6 7 7 6 5
-0 -0 1 1 1 0 1 1 1 2 2 2 2 3 3 3 3 3 2 1 1 3 3 4 4 5 6 7 8 8 8 7
0 1 2 3 2 2 2 2 2 2 2 2 2 2 3 3 3 2 2 1 2 3 3 4 5 6 7 8 9 10 9 9
2 2 3 4 4 4 4 4 3 3 2 2 2 2 1 1 1 1 0 1 2 2 3 4 5 6 7 8 10 10 10 10
4 5 5 6 6 6 5 5 5 4 3 2 2 1 -0 -1 -1 -1 -0 1 1 2 3 4 6 6 7 9 10 10 11 11
6 6 7 7 7 7 7 6 6 5 4 2 1 -0 -1 -2 -1 -1 0 1 1 2 3 5 6 7 7 8 10 10 11 11
6 7 7 7 7 7 7 6 5 5 3 1 -0 -1 -2 -2 -1 -0 1 1 2 2 4 5 6 7 8 8 9 10 10 11
6 6 6 6 6 6 5 4 3 3 2 0 -1 -2 -2 -2 -1 -0 1 1 2 3 4 6 7 8 8 8 8 8 9 10
5 5 5 5 4 3 3 2 1 1 1 -0 -1 -2 -2 -2 -1 -0 0 1 2 3 4 6 7 8 8 8 7 8 8 9
5 4 4 3 3 2 1 1 1 -0 -1 -2 -2 -2 -2 -2 -1 -1 -0 1 2 3 4 6 7 7 7 7 7 7 8 9
3 3 2 2 1 1 1 1 1 -1 -2 -3 -3 -3 -2 -2 -1 -1 0 1 2 3 4 6 7 7 6 5 5 6 7 8
2 1 1 0 -0 -0 0 0 0 -1 -2 -2 -3 -2 -2 -1 -1 -0 0 1 2 3 4 5 6 6 6 5 5 5 6 8
1 0 -0 -1 -1 -2 -1 -0 -1 -1 -2 -2 -2 -2 -2 -1 -0 0 1 2 2 3 4 5 6 6 6 6 5 6 6 6
-1 -1 -1 -2 -2 -3 -2 -2 -2 -3 -3 -2 -2 -2 -2 -1 -0 0 1 1 2 3 4 5 6 6 6 6 6 6 6 7
-2 -2 -2 -3 -3 -3 -3 -3 -3 -3 -2 -2 -2 -2 -1 -1 -0 0 1 1 2 3 5 5 6 6 6 6 6 6 7 8
-3 -3 -3 -3 -4 -4 -4 -4 -3 -3 -2 -2 -2 -1 -1 -1 -0 0 1 1 3 4 5 5 6 6 6 6 6 7 8 8
-3 -3 -3 -3 -4 -5 -5 -4 -4 -3 -3 -2 -2 -1 -1 -1 -0 0 1 1 3 4 5 5 6 6 6 6 7 8 9 9